[[{"header":{"parameterUnit":"m.s-1","parameterCategory":1,"la1":30.2991,"la2":30.254,"lo1":-89.0895,"lo2":-89.0444,"dy":0.0017,"dx":0.0017,"nx":28,"ny":28,"refTime":"2024-12-02T09:00:00:Z","depth":0,"parameterNumber":2,"parameterNumberName":"U-component_of_WINDS"},"data":[0,0,0,0,0,0,0,0,0,0,0,0,0,0,0,0,0,0,0,0,0,0,0,0,0,0,0,0,0,0,0,0,0,0,0,0,0,0,0,0,0,0,0,0,0,0,0,0,0,0,0,0,0,0,0,0,0,0,-3.2858,-3.2858,0,-3.2906,-3.2907,-3.2908,-3.2818,-3.2815,-3.2812,-3.2809,-3.286,-3.2864,-3.2868,0,0,0,0,0,0,0,0,0,0,0,0,0,-3.2688,-3.2691,-3.2858,-3.2858,-3.2859,-3.2906,-3.2907,-3.2908,-3.2818,-3.2815,-3.2811,-3.2807,-3.2859,-3.2864,-3.2869,0,0,0,0,0,0,0,0,0,0,0,0,0,-3.2752,-3.2692,-3.2858,-3.282,-3.2817,-3.2906,-3.2907,-3.2908,-3.2819,-3.2814,-3.281,-3.2806,-3.2857,-3.2863,-3.2869,-3.2998,0,0,-3.2888,-3.2891,0,0,0,0,0,0,0,0,-3.2748,-3.2758,-3.2825,-3.2823,-3.282,-3.2851,-3.2866,-3.2938,-3.282,-3.2818,-3.2809,-3.2804,-3.2861,-3.2866,-3.2886,-3.3,-3.3002,-3.2889,-3.2893,-3.2895,-3.2897,0,0,0,0,0,0,0,-3.2744,-3.2755,-3.2877,-3.2826,-3.2823,-3.2801,-3.2805,-3.2879,-3.2864,-3.2818,-3.2812,-3.2819,-3.2859,-3.288,-3.2886,-3.3003,-3.2889,-3.2894,-3.2898,-3.29,-3.3226,-3.3231,0,0,0,0,0,0,-3.2744,-3.2752,-3.2875,-3.2878,-3.2772,-3.2808,-3.2812,-3.2846,-3.2863,-3.2861,-3.2822,-3.2814,-3.2871,-3.2879,-3.2888,-3.304,-3.2895,-3.2901,-3.2905,-3.3221,-3.3227,-3.3232,0,0,0,0,0,0,-3.2741,-3.2756,-3.2873,-3.2814,-3.2827,-3.2815,-3.2854,-3.2849,-3.287,-3.2866,-3.2863,-3.2847,-3.2868,-3.2879,-3.2971,-3.3041,-3.2904,-3.291,-3.3215,-3.3223,-3.323,-3.3347,0,0,0,0,0,0,-3.2736,-3.2755,-3.2804,-3.2815,-3.283,-3.2957,-3.2858,-3.2853,-3.2881,-3.2871,-3.2889,-3.2887,-3.2865,-3.2962,-3.2977,-3.3047,-3.2914,-3.3209,-3.3219,-3.3228,-3.3337,-3.3357,-3.3375,0,0,0,0,0,-3.273,-3.2835,-3.2807,-3.2822,-3.2891,-3.2961,-3.2969,-3.2942,-3.2887,-3.2936,-3.2934,-3.2887,-3.303,-3.2972,-3.2989,-3.3061,-3.3205,-3.3216,-3.3227,-3.3328,-3.3353,-3.3374,0,0,0,0,0,0,-3.2832,-3.2836,-3.2805,-3.2916,-3.2939,-3.2945,-3.3007,-3.2969,-3.3008,-3.2997,-3.2961,-3.2966,-3.3066,-3.3072,-3.3008,-3.3187,-3.3108,-3.3123,-3.318,-3.3203,-3.3222,-3.322,-3.292,0,0,0,0,0,-3.2868,-3.2924,-3.2923,-3.3022,-3.3035,-3.3019,-3.3048,-3.3025,-3.3047,-3.3056,-3.3061,-3.3084,-3.3135,-3.3169,-3.3215,-3.3336,-3.3339,-3.3394,-3.3413,-3.3428,-3.3442,-3.3508,-3.3533,-3.3269,-3.3269,-3.3268,0,0,-3.2942,-3.295,-3.2988,-3.3042,-3.3057,-3.3117,-3.3028,-3.3094,-3.3138,-3.3066,-3.3155,-3.3158,-3.3182,-3.329,-3.3337,-3.3298,-3.3515,-3.3442,-3.3455,-3.3461,-3.3522,-3.3547,-3.3569,-3.3276,-3.3275,-3.3274,0,0,-3.3107,-3.3119,-3.3203,-3.3219,-3.3243,-3.3231,-3.3251,-3.3264,-3.3263,-3.3351,-3.3299,-3.335,-3.3437,-3.3457,-3.3478,-3.365,-3.3609,-3.3666,-3.3767,-3.3831,-3.3852,-3.387,-3.3933,-3.3956,-3.3679,-3.368,-3.368,0,-3.3197,-3.3284,-3.325,-3.3321,-3.3347,-3.3284,-3.3369,-3.3386,-3.3424,-3.3443,-3.3398,-3.3507,-3.3518,-3.363,-3.3672,-3.3691,-3.3714,-3.3665,-3.3851,-3.3869,-3.3886,-3.3946,-3.3969,-3.3687,-3.3686,-3.3685,-3.3684,0,-3.3393,-3.3455,-3.3519,-3.3557,-3.359,-3.3667,-3.3646,-3.3683,-3.3656,-3.365,-3.374,-3.3751,-3.3799,-3.3823,-3.3797,-3.3931,-3.3906,-3.3857,-3.3778,-3.3919,-3.3974,-3.3997,-3.3697,-3.3694,-3.3692,-3.369,0,0,-3.3628,-3.3645,-3.3669,-3.3686,-3.3707,-3.3754,-3.3828,-3.3874,-3.3907,-3.3934,-3.3997,-3.4071,-3.4026,-3.405,-3.4026,-3.4082,-3.422,-3.4025,-3.4025,-3.4063,-3.437,-3.4409,-3.4436,-3.4191,-3.4195,-3.4199,-3.4368,0,-3.3794,-3.3922,-3.3893,-3.402,-3.4077,-3.4017,-3.4081,-3.4101,-3.4097,-3.4144,-3.4138,-3.4193,-3.4127,-3.4142,-3.4195,-3.4192,-3.4281,-3.4179,-3.425,-3.4253,-3.4249,-3.4465,-3.4507,-3.4667,-3.439,-3.4393,-3.4396,0,-3.4005,-3.4041,-3.4173,-3.4185,-3.4208,-3.4267,-3.4307,-3.4352,-3.4373,-3.4366,-3.4393,-3.4358,-3.4432,-3.435,-3.4451,-3.4383,-3.4409,-3.4412,-3.4418,-3.4426,-3.4335,-3.4481,-3.4717,-3.4742,-3.443,-3.4427,-3.4425,0,-3.4166,-3.4246,-3.4336,-3.4352,-3.4367,-3.441,-3.4418,-3.4435,-3.4464,-3.4499,-3.4518,-3.4561,-3.4585,-3.4619,-3.4597,-3.4539,-3.4703,-3.4619,-3.4701,-3.4701,-3.474,-3.4739,-3.4986,-3.4754,-3.4753,-3.4753,-3.4752,0,-3.4356,-3.444,-3.4408,-3.4464,-3.4556,-3.4522,-3.4614,-3.4615,-3.463,-3.4686,-3.4635,-3.4688,-3.4653,-3.4703,-3.4686,-3.4774,-3.4784,-3.4781,-3.4776,-3.4788,-3.4789,-3.4807,-3.4796,-3.4759,-3.4758,-3.4756,-3.4755,0,-3.4552,-3.4534,-3.4629,-3.4635,-3.4638,-3.4706,-3.4712,-3.4763,-3.4754,-3.4824,-3.4839,-3.4825,-3.4881,-3.4861,-3.4921,-3.4909,-3.5022,-3.5001,-3.5015,-3.5011,-3.5094,-3.5088,-3.5365,-3.54,-3.5142,-3.5145,-3.5147,0,-3.4676,-3.474,-3.4752,-3.4786,-3.4798,-3.4851,-3.4881,-3.4849,-3.4883,-3.4911,-3.496,-3.5011,-3.5051,-3.5143,-3.5139,-3.5185,-3.5166,-3.5259,-3.5173,-3.5182,-3.517,-3.5168,-3.5175,-3.5278,-3.5281,-3.5284,-3.5285,0,-3.4899,-3.4887,-3.4932,-3.4974,-3.5011,-3.5043,-3.507,-3.51,-3.5069,-3.5109,-3.5166,-3.5197,-3.5258,-3.531,-3.5351,-3.5359,-3.5319,-3.5312,-3.5334,-3.5348,-3.5355,-3.5354,-3.5065,-3.5307,-3.5305,-3.5303,-3.5302,-3.5301,-3.5065,-3.5119,-3.5136,-3.5188,-3.5205,-3.5231,-3.5281,-3.5277,-3.5324,-3.5371,-3.5349,-3.5415,-3.5433,-3.5484,-3.5498,-3.5549,-3.5513,-3.5544,-3.5552,-3.5561,-3.5573,-3.5344,-3.5556,-3.5555,-3.5555,-3.5554,-3.5554,0,-3.5288,-3.5295,-3.5343,-3.5383,-3.5424,-3.538,-3.5407,-3.5445,-3.5503,-3.5524,-3.5564,-3.5629,-3.5679,-3.5678,-3.5725,-3.5766,-3.5749,-3.578,-3.5778,-3.5781,-3.5602,-3.558,-3.5793,-3.5793,-3.5793,-3.5793,-3.5793,-3.5793,-3.5408,-3.5498,-3.5487,-3.5584,-3.5591,-3.5655,-3.5675,-3.5699,-3.5716,-3.5791,-3.5832,-3.583,-3.5843,-3.5889,-3.5934,-3.5932,-3.5952,-3.5991,-3.5983,-3.5817,-3.5793,-3.5771,-3.5749,-3.5995,-3.5996,-3.6157,-3.6159,-3.616]},{"header":{"parameterUnit":"m.s-1","parameterCategory":1,"la1":30.2991,"la2":30.254,"lo1":-89.0895,"lo2":-89.0444,"dy":0.0017,"dx":0.0017,"nx":28,"ny":28,"refTime":"2024-12-02T09:00:00:Z","depth":0,"parameterNumber":3,"parameterNumberName":"V-component_of_WINDS"},"data":[0,0,0,0,0,0,0,0,0,0,0,0,0,0,0,0,0,0,0,0,0,0,0,0,0,0,0,0,0,0,0,0,0,0,0,0,0,0,0,0,0,0,0,0,0,0,0,0,0,0,0,0,0,0,0,0,0,0,-4.8457,-4.8458,0,-4.851,-4.8511,-4.8511,-4.8447,-4.8445,-4.8443,-4.844,-4.8491,-4.8494,-4.8497,0,0,0,0,0,0,0,0,0,0,0,0,0,-4.8296,-4.8299,-4.8457,-4.8458,-4.8458,-4.851,-4.8511,-4.8511,-4.8448,-4.8445,-4.8442,-4.8439,-4.8489,-4.8494,-4.8498,0,0,0,0,0,0,0,0,0,0,0,0,0,-4.8359,-4.83,-4.8457,-4.8433,-4.8431,-4.851,-4.8511,-4.8511,-4.8448,-4.8445,-4.8441,-4.8438,-4.8488,-4.8493,-4.8498,-4.8602,0,0,-4.8514,-4.8517,0,0,0,0,0,0,0,0,-4.8355,-4.8365,-4.8436,-4.8435,-4.8433,-4.8468,-4.8472,-4.8542,-4.8449,-4.8442,-4.844,-4.8436,-4.8486,-4.8491,-4.8509,-4.8604,-4.8606,-4.8515,-4.8518,-4.852,-4.8522,0,0,0,0,0,0,0,-4.8351,-4.8362,-4.8478,-4.8437,-4.8435,-4.8418,-4.8423,-4.8485,-4.8483,-4.8442,-4.8438,-4.8445,-4.8484,-4.8504,-4.8509,-4.8607,-4.8515,-4.852,-4.8523,-4.8525,-4.8788,-4.8792,0,0,0,0,0,0,-4.835,-4.8359,-4.8476,-4.8479,-4.8385,-4.8424,-4.8429,-4.8461,-4.8482,-4.8482,-4.8448,-4.8442,-4.8496,-4.8503,-4.8511,-4.8633,-4.852,-4.8525,-4.8528,-4.8785,-4.8789,-4.8793,0,0,0,0,0,0,-4.8347,-4.8361,-4.8474,-4.8418,-4.8431,-4.843,-4.8466,-4.8463,-4.8483,-4.8486,-4.8485,-4.8468,-4.8494,-4.8503,-4.858,-4.8634,-4.8528,-4.8533,-4.878,-4.8786,-4.8791,-4.8878,0,0,0,0,0,0,-4.8342,-4.836,-4.8401,-4.8419,-4.8434,-4.8544,-4.8469,-4.8467,-4.8493,-4.8485,-4.8505,-4.8505,-4.8492,-4.8572,-4.8585,-4.8639,-4.8537,-4.8775,-4.8783,-4.879,-4.887,-4.8886,-4.8899,0,0,0,0,0,-4.8337,-4.8422,-4.8403,-4.8418,-4.8485,-4.8547,-4.8555,-4.8539,-4.8497,-4.8537,-4.8539,-4.8505,-4.8626,-4.858,-4.8594,-4.8651,-4.8772,-4.8781,-4.8789,-4.8864,-4.8883,-4.8899,0,0,0,0,0,0,-4.8409,-4.8424,-4.8403,-4.8498,-4.8522,-4.8536,-4.8586,-4.856,-4.8595,-4.8587,-4.8564,-4.8569,-4.865,-4.8658,-4.8607,-4.8751,-4.8692,-4.8703,-4.8744,-4.8762,-4.8776,-4.8773,-4.8541,0,0,0,0,0,-4.8436,-4.8486,-4.8496,-4.8579,-4.8592,-4.8587,-4.8613,-4.8599,-4.8622,-4.8632,-4.8639,-4.8662,-4.8705,-4.8734,-4.8773,-4.8871,-4.8874,-4.8916,-4.8931,-4.8943,-4.8953,-4.9005,-4.9024,-4.8822,-4.8822,-4.8821,0,0,-4.8492,-4.8507,-4.854,-4.8593,-4.861,-4.8662,-4.8596,-4.8653,-4.869,-4.864,-4.8713,-4.8719,-4.8742,-4.883,-4.8869,-4.8839,-4.901,-4.8954,-4.8963,-4.8967,-4.9016,-4.9035,-4.9052,-4.8828,-4.8826,-4.8826,0,0,-4.862,-4.8637,-4.8707,-4.8725,-4.8752,-4.8748,-4.8765,-4.8784,-4.8786,-4.8859,-4.8822,-4.8865,-4.894,-4.8958,-4.8977,-4.9112,-4.9081,-4.9125,-4.9202,-4.9252,-4.9268,-4.9282,-4.933,-4.9347,-4.9136,-4.9136,-4.9136,0,-4.8686,-4.8764,-4.8746,-4.8806,-4.883,-4.8788,-4.8858,-4.8876,-4.8914,-4.8931,-4.8897,-4.899,-4.9002,-4.9093,-4.9126,-4.9143,-4.9161,-4.9123,-4.9267,-4.9281,-4.9294,-4.9339,-4.9357,-4.9141,-4.9141,-4.914,-4.914,0,-4.8843,-4.8897,-4.895,-4.899,-4.902,-4.9084,-4.9075,-4.9107,-4.909,-4.9089,-4.9163,-4.9177,-4.9219,-4.9239,-4.9222,-4.9327,-4.9308,-4.9271,-4.9211,-4.9319,-4.9361,-4.9378,-4.9149,-4.9147,-4.9145,-4.9144,0,0,-4.9019,-4.9048,-4.9068,-4.9085,-4.9111,-4.9151,-4.9213,-4.9255,-4.9283,-4.931,-4.9361,-4.9425,-4.9391,-4.9412,-4.9397,-4.9441,-4.9547,-4.9399,-4.9399,-4.9426,-4.9663,-4.969,-4.9711,-4.9526,-4.9529,-4.9532,-4.966,0,-4.9148,-4.9257,-4.9243,-4.9347,-4.9396,-4.9356,-4.941,-4.9431,-4.9431,-4.9471,-4.9471,-4.9517,-4.9469,-4.9482,-4.9524,-4.9525,-4.9594,-4.9515,-4.9572,-4.9574,-4.9568,-4.9733,-4.9762,-4.9883,-4.9677,-4.968,-4.9682,0,-4.9313,-4.9348,-4.9458,-4.9476,-4.9495,-4.9545,-4.9581,-4.9621,-4.9643,-4.964,-4.9665,-4.9641,-4.9701,-4.9639,-4.9721,-4.9668,-4.969,-4.9694,-4.9698,-4.9703,-4.9635,-4.9742,-4.9921,-4.994,-4.9707,-4.9705,-4.9703,0,-4.9431,-4.9504,-4.9579,-4.9595,-4.9618,-4.9653,-4.9664,-4.9683,-4.9709,-4.974,-4.9757,-4.9795,-4.9815,-4.9844,-4.9831,-4.9787,-4.9915,-4.9852,-4.9914,-4.9914,-4.9943,-4.9941,-5.0129,-4.9957,-4.9957,-4.9956,-4.9956,0,-4.9576,-4.9645,-4.9633,-4.9679,-4.9754,-4.9735,-4.981,-4.9815,-4.9832,-4.9878,-4.9844,-4.9887,-4.9867,-4.9908,-4.9897,-4.9967,-4.9976,-4.9975,-4.9971,-4.9978,-4.9978,-4.9992,-4.9984,-4.9961,-4.996,-4.9959,-4.9958,0,-4.972,-4.9715,-4.9794,-4.981,-4.9815,-4.987,-4.9882,-4.9924,-4.9922,-4.998,-4.9992,-4.9988,-5.0035,-5.0024,-5.0075,-5.0068,-5.0155,-5.0141,-5.0148,-5.0145,-5.0207,-5.0201,-5.041,-5.0436,-5.0247,-5.0249,-5.0251,0,-4.9814,-4.9866,-4.9887,-4.9916,-4.993,-4.9977,-5.0003,-4.9986,-5.0015,-5.0044,-5.0083,-5.0127,-5.0161,-5.0237,-5.0237,-5.0275,-5.0262,-5.0332,-5.0267,-5.0273,-5.0263,-5.026,-5.0265,-5.0345,-5.0348,-5.0349,-5.0351,0,-4.9981,-4.9975,-5.0016,-5.0056,-5.0089,-5.0119,-5.0145,-5.017,-5.0155,-5.0189,-5.0237,-5.0264,-5.0316,-5.0359,-5.0394,-5.0403,-5.0375,-5.0371,-5.0387,-5.0395,-5.0397,-5.0397,-5.0184,-5.0366,-5.0365,-5.0364,-5.0363,-5.0362,-5.0102,-5.0147,-5.0169,-5.0215,-5.0233,-5.0259,-5.03,-5.0303,-5.0343,-5.0385,-5.0372,-5.0426,-5.0445,-5.049,-5.0503,-5.0544,-5.0518,-5.0541,-5.0547,-5.0553,-5.0561,-5.0391,-5.0551,-5.055,-5.055,-5.0549,-5.0549,0,-5.0267,-5.028,-5.0322,-5.0361,-5.0397,-5.0368,-5.0395,-5.0427,-5.0476,-5.0497,-5.0532,-5.0586,-5.0628,-5.0632,-5.0671,-5.0703,-5.0691,-5.0714,-5.0711,-5.0714,-5.0583,-5.0565,-5.0723,-5.0723,-5.0723,-5.0723,-5.0723,-5.0723,-5.0358,-5.0431,-5.0428,-5.051,-5.0521,-5.0575,-5.0593,-5.0616,-5.0633,-5.0696,-5.0731,-5.0734,-5.0748,-5.0787,-5.0824,-5.0824,-5.0839,-5.0868,-5.0863,-5.074,-5.0723,-5.0707,-5.069,-5.0871,-5.0872,-5.099,-5.0991,-5.0992]}]]